EW8215 Weather Reports


Display with metric or nautical units.
time (UTC)temp
F
wind
direction
speed
MPH
gust
MPH
rain 1hr
in
rain 24hr
in
rain mn
in
humidity
%
barometer
mb
20260902025122 87 95 11.0 12.0 0.00 0.00 0.00 63 1014.5
20260902024617 87 107 8.0 10.0 0.00 0.00 0.00 62 1014.6
20260902024112 87 115 6.0 7.0 0.00 0.00 0.00 61 1014.3
20260902023608 87 119 7.0 9.0 0.00 0.00 0.00 60 1014.5
20260902023103 87 127 7.0 9.0 0.00 0.00 0.00 60 1014.2
20260902022602 86 119 8.0 9.0 0.00 0.00 0.00 62 1014.0
20260902022058 86 131 4.0 5.0 0.00 0.00 0.00 63 1013.9
20260902021553 86 142 2.0 3.0 0.00 0.00 0.00 62 1013.8
20260902021048 86 143 2.0 3.0 0.00 0.00 0.00 63 1013.6
20260902020538 86 143 2.0 2.0 0.00 0.00 0.00 62 1013.6
20260902020034 87 143 2.0 3.0 0.00 0.00 0.00 62 1013.5
20260902015530 87 134 2.0 3.0 0.00 0.00 0.00 61 1013.3
20260902015025 87 133 4.0 5.0 0.00 0.00 0.00 61 1013.4
20260902014521 87 135 3.0 3.0 0.00 0.00 0.00 60 1013.3
20260902014017 88 137 3.0 3.0 0.00 0.00 0.00 59 1013.2
20260902013511 88 148 1.0 2.0 0.00 0.00 0.00 59 1013.2
20260902013007 89 139 2.0 3.0 0.00 0.00 0.00 58 1013.3
20260902012501 89 151 4.0 5.0 0.00 0.00 0.00 56 1013.2
20260902011957 89 131 3.0 3.0 0.00 0.00 0.00 56 1013.2
20260902011453 89 137 3.0 3.0 0.00 0.00 0.00 57 1013.0
20260902010952 90 136 3.0 3.0 0.00 0.00 0.00 56 1013.2
20260902010446 90 132 3.0 3.0 0.00 0.00 0.00 55 1013.0
20260902005945 91 146 0.0 0.0 0.00 0.00 0.00 55 1013.1
20260902005444 91 148 0.0 0.0 0.00 0.00 0.00 54 1013.1
20260902004941 92 148 1.0 2.0 0.00 0.00 0.00 53 1013.0
20260902004440 92 132 2.0 2.0 0.00 0.00 0.00 52 1013.0
20260902003936 92 156 1.0 2.0 0.00 0.00 0.00 52 1013.0
20260902003436 93 140 2.0 2.0 0.00 0.00 0.00 51 1012.9
20260902002931 93 149 0.0 0.0 0.00 0.00 0.00 51 1013.1
20260902002426 93 116 2.0 3.0 0.00 0.00 0.00 50 1013.0
20260902001926 93 137 5.0 5.0 0.00 0.00 0.00 50 1013.1
20260902001421 93 149 4.0 5.0 0.00 0.00 0.00 49 1013.1
20260902000916 94 113 3.0 5.0 0.00 0.00 0.00 48 1013.0
20260902000414 94 133 4.0 5.0 0.00 0.00 0.00 48 1013.3
20260901235906 94 162 4.0 7.0 0.00 0.00 0.00 48 1013.2
20260901235407 94 135 4.0 5.0 0.00 0.00 0.00 48 1013.3
20260901234902 94 116 5.0 7.0 0.00 0.00 0.00 49 1013.3
20260901234355 94 147 2.0 3.0 0.00 0.00 0.00 49 1013.0
20260901233850 95 108 5.0 7.0 0.00 0.00 0.00 48 1013.2
20260901233346 95 145 5.0 7.0 0.00 0.00 0.00 48 1013.1
20260901232842 96 132 4.0 5.0 0.00 0.00 0.00 45 1013.2
20260901232337 96 139 4.0 5.0 0.00 0.00 0.00 44 1013.3
20260901231833 96 149 2.0 5.0 0.00 0.00 0.00 44 1013.3
20260901231329 96 143 2.0 3.0 0.00 0.00 0.00 44 1013.2
20260901230825 96 112 5.0 5.0 0.00 0.00 0.00 44 1013.4
20260901230324 97 141 1.0 2.0 0.00 0.00 0.00 44 1013.3
20260901225814 97 153 5.0 7.0 0.00 0.00 0.00 43 1013.2
20260901225308 97 151 7.0 10.0 0.00 0.00 0.00 43 1013.1
20260901224804 100 143 7.0 10.0 0.00 0.00 0.00 42 1013.1
20260901224300 99 123 0.0 2.0 0.00 0.00 0.00 41 1013.3
20260901223756 100 70 5.0 7.0 0.00 0.00 0.00 40 1013.2
20260901223255 101 111 2.0 5.0 0.00 0.00 0.00 38 1013.3
20260901222752 102 148 2.0 3.0 0.00 0.00 0.00 38 1013.2
20260901222248 101 104 5.0 7.0 0.00 0.00 0.00 40 1013.3
20260901221743 99 114 3.0 5.0 0.00 0.00 0.00 40 1013.3
20260901221239 99 111 12.0 15.0 0.00 0.00 0.00 40 1013.2
20260901220739 102 114 7.0 15.0 0.00 0.00 0.00 39 1013.3
20260901220238 101 126 9.0 14.0 0.00 0.00 0.00 40 1013.4
20260901215737 100 159 0.0 2.0 0.00 0.00 0.00 41 1013.3
20260901215231 101 131 5.0 5.0 0.00 0.00 0.00 40 1013.2
20260901214730 101 147 1.0 3.0 0.00 0.00 0.00 39 1013.4
20260901214224 102 128 2.0 3.0 0.00 0.00 0.00 39 1013.6
20260901213724 101 182 2.0 3.0 0.00 0.00 0.00 39 1013.4
20260901213223 101 82 4.0 7.0 0.00 0.00 0.00 38 1013.4
20260901212723 101 135 9.0 12.0 0.00 0.00 0.00 39 1013.6
20260901212219 101 159 2.0 3.0 0.00 0.00 0.00 40 1013.6
20260901211714 102 115 11.0 15.0 0.00 0.00 0.00 39 1013.5
20260901211210 101 167 1.0 2.0 0.00 0.00 0.00 39 1013.6
20260901210700 99 167 1.0 3.0 0.00 0.00 0.00 40 1013.7
20260901210155 100 96 8.0 15.0 0.00 0.00 0.00 41 1013.9
20260901205652 100 121 2.0 3.0 0.00 0.00 0.00 42 1013.9
20260901205151 98 152 2.0 3.0 0.00 0.00 0.00 44 1013.9
20260901204647 97 154 2.0 3.0 0.00 0.00 0.00 46 1013.9
20260901204142 96 145 2.0 2.0 0.00 0.00 0.00 47 1014.0
20260901203636 96 132 3.0 3.0 0.00 0.00 0.00 47 1014.2
20260901203131 95 134 6.0 9.0 0.00 0.00 0.00 48 1014.4
20260901202631 96 116 7.0 10.0 0.00 0.00 0.00 47 1014.3
20260901202127 96 111 6.0 7.0 0.00 0.00 0.00 47 1014.4
20260901201623 98 122 2.0 7.0 0.00 0.00 0.00 45 1014.5
20260901201122 97 139 4.0 5.0 0.00 0.00 0.00 46 1014.5
20260901200621 98 153 0.0 0.0 0.00 0.00 0.00 45 1014.5
20260901200116 98 132 6.0 7.0 0.00 0.00 0.00 45 1014.5
20260901195614 97 136 0.0 0.0 0.00 0.00 0.00 44 1014.6
20260901195109 98 150 0.0 0.0 0.00 0.00 0.00 44 1014.6
20260901194604 97 150 1.0 2.0 0.00 0.00 0.00 45 1014.8
20260901194100 96 122 1.0 2.0 0.00 0.00 0.00 45 1014.9
20260901193555 97 103 12.0 15.0 0.00 0.00 0.00 44 1014.9
20260901193049 99 123 2.0 3.0 0.00 0.00 0.00 44 1014.9
20260901192544 100 198 3.0 3.0 0.00 0.00 0.00 42 1014.8
20260901192040 100 118 2.0 3.0 0.00 0.00 0.00 42 1015.1
20260901191536 98 171 0.0 0.0 0.00 0.00 0.00 44 1015.1
20260901191032 97 154 0.0 2.0 0.00 0.00 0.00 46 1015.0
20260901190527 100 159 2.0 3.0 0.00 0.00 0.00 43 1015.2
20260901190027 100 128 1.0 2.0 0.00 0.00 0.00 42 1015.2
20260901185525 98 141 4.0 5.0 0.00 0.00 0.00 45 1015.4
20260901185024 96 171 3.0 3.0 0.00 0.00 0.00 46 1015.5
20260901184520 96 148 3.0 3.0 0.00 0.00 0.00 48 1015.7
20260901184015 97 148 4.0 5.0 0.00 0.00 0.00 47 1015.6
20260901183515 99 153 6.0 7.0 0.00 0.00 0.00 46 1015.6
20260901183010 99 142 7.0 9.0 0.00 0.00 0.00 46 1015.7
20260901182506 100 172 4.0 5.0 0.00 0.00 0.00 44 1016.0
20260901182001 98 170 1.0 2.0 0.00 0.00 0.00 47 1015.9
20260901181501 99 140 4.0 5.0 0.00 0.00 0.00 46 1016.1
20260901181000 99 177 2.0 3.0 0.00 0.00 0.00 46 1016.0
20260901180459 99 134 2.0 2.0 0.00 0.00 0.00 48 1016.1
20260901175957 97 58 2.0 3.0 0.00 0.00 0.00 49 1016.4
20260901175453 98 162 0.0 2.0 0.00 0.00 0.00 48 1016.2
20260901174947 98 55 5.0 9.0 0.00 0.00 0.00 47 1016.5
20260901174443 97 107 10.0 10.0 0.00 0.00 0.00 49 1016.4
20260901173939 96 133 1.0 2.0 0.00 0.00 0.00 48 1016.6
20260901173433 96 221 7.0 10.0 0.00 0.00 0.00 48 1016.6
20260901172930 95 141 7.0 9.0 0.00 0.00 0.00 51 1016.8
20260901172425 94 176 5.0 7.0 0.00 0.00 0.00 50 1017.0
20260901171923 96 114 11.0 12.0 0.00 0.00 0.00 48 1017.1
20260901171422 97 146 0.0 2.0 0.00 0.00 0.00 47 1017.0
20260901170920 96 139 0.0 2.0 0.00 0.00 0.00 48 1017.2
20260901170415 94 135 0.0 0.0 0.00 0.00 0.00 53 1017.4
20260901165909 95 197 6.0 9.0 0.00 0.00 0.00 50 1017.1
20260901165403 95 132 2.0 3.0 0.00 0.00 0.00 51 1017.4
20260901164900 95 211 3.0 5.0 0.00 0.00 0.00 51 1017.0
20260901164355 94 180 4.0 5.0 0.00 0.00 0.00 52 1017.1
20260901163849 94 169 3.0 7.0 0.00 0.00 0.00 52 1017.3
20260901163344 94 193 4.0 5.0 0.00 0.00 0.00 52 1017.3
20260901162839 94 156 7.0 10.0 0.00 0.00 0.00 51 1017.4
20260901162338 94 83 6.0 9.0 0.00 0.00 0.00 52 1017.4
20260901161837 93 128 4.0 7.0 0.00 0.00 0.00 53 1017.5
20260901161332 93 112 3.0 5.0 0.00 0.00 0.00 53 1017.6
20260901160827 93 211 5.0 7.0 0.00 0.00 0.00 55 1017.6
20260901160324 93 167 1.0 2.0 0.00 0.00 0.00 56 1017.6
20260901155822 92 165 1.0 2.0 0.00 0.00 0.00 57 1017.6
20260901155317 92 165 2.0 3.0 0.00 0.00 0.00 58 1017.6
20260901154814 91 175 3.0 3.0 0.00 0.00 0.00 57 1017.5
20260901154308 91 172 4.0 5.0 0.00 0.00 0.00 58 1017.8
20260901153803 92 137 5.0 7.0 0.00 0.00 0.00 58 1017.6
20260901153302 93 132 0.0 2.0 0.00 0.00 0.00 56 1017.7
20260901152801 92 102 3.0 3.0 0.00 0.00 0.00 57 1017.7
20260901152300 91 130 0.0 0.0 0.00 0.00 0.00 59 1017.5
20260901151755 91 163 0.0 2.0 0.00 0.00 0.00 61 1017.6
20260901151250 90 23 4.0 5.0 0.00 0.00 0.00 62 1017.6
20260901150749 90 101 0.0 2.0 0.00 0.00 0.00 63 1017.5
20260901150247 89 216 4.0 7.0 0.00 0.00 0.00 64 1017.6
20260901145745 89 174 2.0 2.0 0.00 0.00 0.00 66 1017.6
20260901145240 89 149 0.0 2.0 0.00 0.00 0.00 67 1017.8
20260901144736 87 152 0.0 2.0 0.00 0.00 0.00 69 1017.7
20260901144231 88 172 3.0 3.0 0.00 0.00 0.00 70 1017.8
20260901143726 88 68 5.0 5.0 0.00 0.00 0.00 69 1017.5
20260901143222 87 190 3.0 3.0 0.00 0.00 0.00 71 1017.8
20260901142718 86 162 0.0 0.0 0.00 0.00 0.00 72 1017.8
20260901142218 86 186 0.0 2.0 0.00 0.00 0.00 75 1017.9
20260901141713 86 111 0.0 0.0 0.00 0.00 0.00 74 1017.6
20260901141212 85 188 0.0 0.0 0.00 0.00 0.00 75 1017.8
20260901140711 85 145 0.0 0.0 0.00 0.00 0.00 75 1017.8
20260901140210 86 187 1.0 2.0 0.00 0.00 0.00 74 1017.9
20260901135705 85 159 0.0 0.0 0.00 0.00 0.00 75 1017.7
20260901135200 84 159 0.0 0.0 0.00 0.00 0.00 76 1017.8
20260901134656 84 149 0.0 0.0 0.00 0.00 0.00 77 1017.8
20260901134151 84 130 0.0 0.0 0.00 0.00 0.00 77 1017.7
20260901133651 84 147 0.0 0.0 0.00 0.00 0.00 78 1017.9
20260901133149 82 152 0.0 0.0 0.00 0.00 0.00 79 1017.7
20260901132644 82 157 0.0 0.0 0.00 0.00 0.00 82 1017.7
20260901132144 81 161 0.0 0.0 0.00 0.00 0.00 83 1017.7
20260901131644 80 159 0.0 0.0 0.00 0.00 0.00 85 1017.8
20260901131138 79 159 0.0 0.0 0.00 0.00 0.00 87 1017.6
20260901130633 77 160 0.0 0.0 0.00 0.00 0.00 89 1017.7
20260901130132 76 159 0.0 0.0 0.00 0.00 0.00 91 1017.4
20260901125630 76 158 0.0 0.0 0.00 0.00 0.00 92 1017.5
20260901125125 76 152 0.0 0.0 0.00 0.00 0.00 92 1017.6
20260901124620 75 151 0.0 0.0 0.00 0.00 0.00 93 1017.6
20260901124114 75 134 0.0 0.0 0.00 0.00 0.00 93 1017.7
20260901123614 75 144 0.0 0.0 0.00 0.00 0.00 93 1017.6
20260901123114 75 147 0.0 0.0 0.00 0.00 0.00 93 1017.4
20260901122612 75 151 0.0 0.0 0.00 0.00 0.00 93 1017.2
20260901122107 75 153 0.0 0.0 0.00 0.00 0.00 94 1017.1
20260901121601 74 150 0.0 0.0 0.00 0.00 0.00 94 1017.1
20260901121057 74 150 0.0 0.0 0.00 0.00 0.00 94 1017.1
20260901120551 74 150 0.0 0.0 0.00 0.00 0.00 94 1016.8
20260901120047 74 149 0.0 0.0 0.00 0.00 0.00 94 1016.9
20260901115542 74 148 0.0 0.0 0.00 0.00 0.00 94 1016.8
20260901115038 74 147 0.0 0.0 0.00 0.00 0.00 93 1016.9
20260901114534 75 156 0.0 0.0 0.00 0.00 0.00 93 1016.9
20260901114033 75 156 0.0 0.0 0.00 0.00 0.00 93 1016.6
20260901113532 75 156 0.0 0.0 0.00 0.00 0.00 93 1016.7
20260901113027 75 158 0.0 0.0 0.00 0.00 0.00 93 1016.7
20260901112521 74 158 0.0 0.0 0.00 0.00 0.00 92 1016.8
20260901112017 75 158 0.0 0.0 0.00 0.00 0.00 92 1016.8
20260901111515 75 158 0.0 0.0 0.00 0.00 0.00 91 1016.6
20260901111014 75 158 0.0 0.0 0.00 0.00 0.00 91 1016.7
20260901110510 75 159 0.0 0.0 0.00 0.00 0.00 91 1016.5
20260901110006 75 153 0.0 0.0 0.00 0.00 0.00 91 1016.9
20260901105501 75 153 0.0 0.0 0.00 0.00 0.00 91 1016.7
20260901105001 75 153 0.0 0.0 0.00 0.00 0.00 91 1016.8
20260901104457 75 153 0.0 0.0 0.00 0.00 0.00 91 1016.7
20260901103952 76 153 0.0 0.0 0.00 0.00 0.00 91 1016.5
20260901103447 76 153 0.0 0.0 0.00 0.00 0.00 91 1016.7
20260901102942 76 151 0.0 0.0 0.00 0.00 0.00 91 1016.7
20260901102437 76 149 0.0 0.0 0.00 0.00 0.00 90 1016.6
20260901101931 76 154 0.0 0.0 0.00 0.00 0.00 90 1016.4
20260901101427 76 156 0.0 0.0 0.00 0.00 0.00 89 1016.5
20260901100926 76 156 0.0 0.0 0.00 0.00 0.00 89 1016.6
20260901100420 77 150 0.0 0.0 0.00 0.00 0.00 89 1016.4
20260901095914 77 150 0.0 0.0 0.00 0.00 0.00 88 1016.4
20260901095412 77 151 0.0 0.0 0.00 0.00 0.00 88 1016.3
20260901094906 77 152 0.0 0.0 0.00 0.00 0.00 88 1016.3
20260901094401 77 152 0.0 0.0 0.00 0.00 0.00 88 1016.5
20260901093855 77 151 0.0 0.0 0.00 0.00 0.00 88 1016.4
20260901093354 77 153 0.0 0.0 0.00 0.00 0.00 88 1016.5
20260901092851 78 149 0.0 0.0 0.00 0.00 0.00 87 1016.5
20260901092346 78 154 0.0 0.0 0.00 0.00 0.00 87 1016.4
20260901091842 78 154 0.0 0.0 0.00 0.00 0.00 86 1016.3
20260901091342 78 153 0.0 0.0 0.00 0.00 0.00 86 1016.6
20260901090837 78 157 0.0 0.0 0.00 0.00 0.00 86 1016.5
20260901090336 78 156 0.0 0.0 0.00 0.00 0.00 86 1016.5
20260901085833 78 154 0.0 0.0 0.00 0.00 0.00 86 1016.8
20260901085333 78 153 0.0 0.0 0.00 0.00 0.00 85 1016.4
20260901084829 78 153 0.0 0.0 0.00 0.00 0.00 86 1016.6
20260901084325 78 151 0.0 0.0 0.00 0.00 0.00 85 1016.5
20260901083820 79 147 0.0 0.0 0.00 0.00 0.00 84 1016.7
20260901083315 79 150 0.0 0.0 0.00 0.00 0.00 83 1016.7
20260901082813 79 152 0.0 0.0 0.00 0.00 0.00 83 1016.6
20260901082309 80 154 0.0 0.0 0.00 0.00 0.00 82 1016.5
20260901081803 80 157 0.0 0.0 0.00 0.00 0.00 82 1016.6
20260901081258 80 150 2.0 2.0 0.00 0.00 0.00 81 1016.7
20260901080753 80 152 0.0 0.0 0.00 0.00 0.00 81 1016.5
20260901080252 80 156 1.0 2.0 0.00 0.00 0.00 81 1016.4
20260901075747 80 159 0.0 2.0 0.00 0.00 0.00 81 1016.3
20260901075241 81 159 2.0 2.0 0.00 0.00 0.00 80 1016.7
20260901074736 81 155 0.0 0.0 0.00 0.00 0.00 80 1016.8
20260901074231 81 135 0.0 0.0 0.00 0.00 0.00 80 1016.6
20260901073728 81 159 0.0 0.0 0.00 0.00 0.00 80 1016.4
20260901073223 81 160 0.0 0.0 0.00 0.00 0.00 79 1016.5
20260901072718 81 161 0.0 0.0 0.00 0.00 0.00 78 1016.4
20260901072213 82 166 0.0 0.0 0.00 0.00 0.00 78 1016.4
20260901071712 82 165 0.0 0.0 0.00 0.00 0.00 77 1016.5
20260901071207 82 156 0.0 0.0 0.00 0.00 0.00 77 1016.6
20260901070701 82 163 0.0 0.0 0.00 0.00 0.00 77 1016.6
20260901070156 82 168 2.0 3.0 0.00 0.00 0.00 77 1016.5
20260901065655 82 174 3.0 3.0 0.00 0.00 0.00 77 1016.5
20260901065150 82 160 0.0 2.0 0.00 0.00 0.00 76 1016.8
20260901064647 82 162 1.0 2.0 0.00 0.00 0.00 76 1016.6
20260901064143 82 155 2.0 2.0 0.00 0.00 0.00 76 1016.6
20260901063641 82 172 1.0 2.0 0.00 0.00 0.00 76 1016.5
20260901063136 82 163 0.0 0.0 0.00 0.00 0.00 76 1016.4
20260901062632 82 178 2.0 3.0 0.00 0.00 0.00 75 1016.3
20260901062127 82 163 1.0 2.0 0.00 0.00 0.00 75 1016.4
20260901061623 82 169 4.0 5.0 0.00 0.00 0.00 75 1016.4
20260901061117 83 169 1.0 2.0 0.00 0.00 0.00 74 1016.2
20260901060617 83 158 2.0 3.0 0.00 0.00 0.00 74 1016.1
20260901060113 83 151 1.0 2.0 0.00 0.00 0.00 74 1016.2
20260901055613 83 134 2.0 3.0 0.00 0.00 0.00 73 1016.1
20260901055110 83 159 3.0 3.0 0.00 0.00 0.00 73 1016.0
20260901054607 83 155 2.0 2.0 0.00 0.00 0.00 72 1016.2
20260901054102 83 177 4.0 5.0 0.00 0.00 0.00 72 1016.0
20260901053558 83 170 3.0 3.0 0.00 0.00 0.00 72 1016.1
20260901053054 84 165 2.0 3.0 0.00 0.00 0.00 71 1016.1
20260901052549 84 164 4.0 5.0 0.00 0.00 0.00 71 1016.0
20260901052044 84 157 2.0 3.0 0.00 0.00 0.00 71 1015.9
20260901051539 83 162 8.0 10.0 0.00 0.00 0.00 71 1015.9
20260901051038 83 178 3.0 5.0 0.00 0.00 0.00 71 1015.9
20260901050533 82 160 1.0 2.0 0.00 0.00 0.00 71 1015.8
20260901050028 82 156 1.0 2.0 0.00 0.00 0.00 71 1015.9
20260901045523 81 144 2.0 2.0 0.00 0.00 0.00 71 1015.9
20260901045023 82 137 2.0 3.0 0.00 0.00 0.00 71 1015.8
20260901044519 82 144 2.0 2.0 0.00 0.00 0.00 70 1015.8
20260901044015 82 144 3.0 3.0 0.00 0.00 0.00 69 1015.6
20260901043510 83 117 3.0 3.0 0.00 0.00 0.00 68 1015.8
20260901043006 83 144 2.0 2.0 0.00 0.00 0.00 67 1015.6
20260901042505 83 130 2.0 3.0 0.00 0.00 0.00 66 1015.7
20260901042000 84 143 1.0 2.0 0.00 0.00 0.00 66 1015.6
20260901041455 84 155 1.0 2.0 0.00 0.00 0.00 64 1015.6
20260901040950 84 117 3.0 3.0 0.00 0.00 0.00 64 1015.5
20260901040444 84 157 2.0 3.0 0.00 0.00 0.00 63 1015.3
20260901035943 84 151 2.0 2.0 0.00 0.00 0.00 63 1015.6
20260901035442 85 147 3.0 3.0 0.00 0.00 0.00 62 1015.5
20260901034941 85 167 2.0 3.0 0.00 0.00 0.00 61 1015.7
20260901034441 85 119 4.0 7.0 0.00 0.00 0.00 60 1015.3
20260901033936 85 143 1.0 2.0 0.00 0.00 0.00 60 1015.3
20260901033435 85 134 2.0 2.0 0.00 0.00 0.00 59 1015.4
20260901032934 85 159 0.0 0.0 0.00 0.00 0.00 58 1015.4
20260901032433 85 158 0.0 2.0 0.00 0.00 0.00 58 1015.5
20260901031928 85 128 0.0 0.0 0.00 0.00 0.00 58 1015.3
20260901031424 85 157 0.0 0.0 0.00 0.00 0.00 57 1015.3
20260901030918 84 135 1.0 3.0 0.00 0.00 0.00 58 1015.1
20260901030408 83 149 0.0 0.0 0.00 0.00 0.00 59 1015.0
20260901025907 84 142 0.0 0.0 0.00 0.00 0.00 59 1014.9
20260901025403 84 135 0.0 0.0 0.00 0.00 0.00 58 1014.8